TimeEDT,TemperatureF,Dew PointF,Humidity,Sea Level PressureIn,VisibilityMPH,Wind Direction,Wind SpeedMPH,Gust SpeedMPH,PrecipitationIn,Events,Conditions,WindDirDegrees,DateUTC
12:54 AM,71.1,68.0,90,30.13,6.0,SSE,5.8,-,N/A,,Scattered Clouds,150,2013-07-05 04:54:00
1:54 AM,71.1,69.1,93,30.13,8.0,Calm,Calm,-,N/A,,Mostly Cloudy,0,2013-07-05 05:54:00
2:54 AM,72.0,68.0,87,30.13,9.0,South,4.6,-,N/A,,Overcast,180,2013-07-05 06:54:00
3:54 AM,72.0,69.1,91,30.13,10.0,South,4.6,-,N/A,,Overcast,180,2013-07-05 07:54:00
4:54 AM,71.1,68.0,90,30.12,10.0,SSE,4.6,-,N/A,,Mostly Cloudy,150,2013-07-05 08:54:00
5:54 AM,71.1,68.0,90,30.13,10.0,South,4.6,-,N/A,,Mostly Cloudy,170,2013-07-05 09:54:00
6:54 AM,72.0,68.0,87,30.12,10.0,SSE,4.6,-,N/A,,Mostly Cloudy,160,2013-07-05 10:54:00
7:54 AM,73.0,68.0,84,30.12,10.0,SSE,5.8,-,0.00,,Mostly Cloudy,160,2013-07-05 11:54:00
8:54 AM,73.9,69.1,85,30.12,10.0,SSE,6.9,-,0.00,Rain,Light Rain,160,2013-07-05 12:54:00
9:54 AM,78.1,69.1,74,30.12,10.0,West,3.5,-,0.00,,Mostly Cloudy,280,2013-07-05 13:54:00
10:54 AM,78.1,70.0,76,30.11,10.0,SW,8.1,-,N/A,,Overcast,220,2013-07-05 14:54:00
11:13 AM,78.8,69.8,74,30.13,10.0,SW,8.1,-,N/A,,Overcast,230,2013-07-05 15:13:00
11:54 AM,78.1,69.1,74,30.12,10.0,SW,10.4,-,0.00,,Overcast,230,2013-07-05 15:54:00
12:14 PM,78.8,69.8,74,30.13,10.0,WSW,11.5,-,N/A,,Overcast,250,2013-07-05 16:14:00
12:54 PM,79.0,69.1,72,30.12,10.0,SW,12.7,-,N/A,,Mostly Cloudy,230,2013-07-05 16:54:00
1:54 PM,81.0,68.0,65,30.09,10.0,SW,11.5,-,N/A,,Mostly Cloudy,230,2013-07-05 17:54:00
2:54 PM,75.9,71.1,85,30.10,9.0,West,12.7,-,0.00,Rain,Light Rain,260,2013-07-05 18:54:00
3:54 PM,79.0,66.9,66,30.09,10.0,WSW,13.8,-,0.00,,Mostly Cloudy,240,2013-07-05 19:54:00
4:54 PM,78.1,66.0,66,30.08,10.0,WSW,13.8,-,N/A,,Mostly Cloudy,250,2013-07-05 20:54:00
5:54 PM,78.1,66.9,68,30.07,10.0,SW,15.0,-,N/A,,Mostly Cloudy,230,2013-07-05 21:54:00
6:54 PM,73.9,66.9,79,30.08,10.0,WSW,9.2,-,0.00,,Overcast,240,2013-07-05 22:54:00
7:54 PM,72.0,69.1,91,30.09,10.0,SW,8.1,-,0.00,,Mostly Cloudy,220,2013-07-05 23:54:00
8:54 PM,72.0,66.9,84,30.09,10.0,SSW,8.1,-,N/A,,Mostly Cloudy,200,2013-07-06 00:54:00
9:54 PM,71.1,66.9,87,30.09,10.0,SSW,6.9,-,N/A,,Mostly Cloudy,210,2013-07-06 01:54:00
10:54 PM,72.0,66.9,84,30.09,10.0,SW,9.2,-,N/A,,Mostly Cloudy,230,2013-07-06 02:54:00
11:54 PM,72.0,66.0,81,30.10,10.0,SW,11.5,-,N/A,,Scattered Clouds,220,2013-07-06 03:54:00